Vertical_Velocity
-4 -2 3 -3 5 2 -3 -4 2 7 4 2 1 2 0 -1 -4 -5 -3 1 4 4 -1 11 5 10 15
6 -5 -3 4 -2 -2 5 5 -4 3 0 2 2 1 -0 3 -1 -1 -4 -1 -5 5 6 -2 25 2 12
-11 -1 -5 -0 3 4 -4 -3 1 -3 -2 1 -1 -2 0 -0 0 0 -3 -2 -2 5 -1 -2 -12 6 6
-1 -6 -4 7 -2 -12 -1 0 -1 0 0 -2 -1 -2 -5 -0 -1 -3 -3 -2 -6 -5 -5 -6 -11 -3 -1
-6 -1 2 -4 -4 1 -7 -4 9 -2 5 -1 -5 -4 -3 -5 -2 -1 0 -2 2 0 -2 -6 -10 -1 -2
-5 -3 5 -2 -2 -4 -1 -4 -8 20 -6 4 -8 -0 2 -6 -2 -1 1 2 -0 1 -2 1 -1 -6 -6
-8 8 -3 0 -6 1 1 -3 -2 12 -12 2 -3 -1 -3 -2 -1 -2 -3 -1 -2 1 -0 2 2 5 7
0 -3 -0 0 -4 -2 2 1 5 -0 -3 9 -11 6 -9 -0 0 0 -0 -0 0 2 -5 0 -1 1 3
3 -6 -1 -2 -3 -2 1 -1 4 6 7 1 -5 4 1 1 -3 -2 -0 -1 0 1 -2 1 -2 -5 -3
6 0 -0 -0 -2 -3 -3 -1 2 5 6 2 -1 1 0 -0 1 2 4 4 1 1 0 1 2 2 -0
-1 -2 -2 0 2 1 -2 -3 1 2 -0 -0 2 -0 3 -2 -1 -1 -2 -3 -1 0 3 2 2 3 -3
2 2 1 2 -0 0 -0 -1 -1 2 1 -1 1 -1 3 1 1 -1 0 -2 -2 1 2 3 5 -1 -8
3 5 3 -5 -3 -1 -1 1 1 -1 1 4 3 1 2 1 -0 -1 1 -2 4 2 -0 4 -0 0 2
2 -3 -3 -0 1 0 1 -0 2 1 4 4 9 0 5 -1 2 2 1 3 4 3 2 3 2 1 2
1 2 2 -0 -0 1 2 2 3 3 1 2 3 3 -1 1 1 1 2 3 2 2 2 4 3 3 2
1 1 1 2 3 3 3 3 2 3 3 1 1 2 1 5 5 2 2 3 2 2 0 1 1 0 3
3 4 1 2 3 4 5 3 0 1 3 5 2 4 3 1 -1 0 2 3 2 0 -0 -0 -2 -2 5
Height
5383 5384 5371 5358 5353 5347 5348 5350 5354 5355 5357 5359 5361 5366 5370 5374 5378 5384 5390 5399 5403 5408 5419 5428 5437 5446 5458
5355 5343 5340 5332 5322 5315 5316 5316 5320 5325 5328 5333 5338 5343 5347 5353 5357 5362 5367 5373 5381 5384 5392 5407 5417 5428 5439
5322 5317 5314 5309 5298 5290 5284 5283 5282 5288 5298 5305 5310 5316 5324 5330 5336 5341 5346 5352 5359 5366 5372 5383 5395 5409 5421
5301 5293 5290 5286 5270 5260 5255 5253 5249 5253 5264 5271 5280 5289 5297 5306 5314 5320 5327 5333 5337 5343 5353 5362 5375 5387 5398
5283 5274 5268 5259 5251 5243 5229 5227 5226 5227 5229 5236 5248 5260 5271 5279 5288 5297 5304 5311 5319 5326 5334 5343 5353 5366 5378
5266 5256 5251 5240 5233 5224 5215 5210 5210 5213 5201 5214 5221 5234 5243 5252 5261 5270 5279 5289 5298 5307 5316 5326 5336 5349 5360
5249 5241 5234 5227 5217 5211 5204 5197 5196 5196 5192 5199 5202 5211 5219 5227 5235 5243 5253 5266 5279 5292 5302 5313 5324 5333 5342
5234 5226 5218 5213 5205 5199 5193 5190 5189 5187 5185 5187 5190 5196 5200 5208 5216 5224 5234 5246 5262 5276 5289 5300 5310 5319 5329
5224 5215 5208 5202 5196 5191 5187 5184 5184 5183 5181 5179 5181 5185 5189 5195 5200 5208 5219 5232 5248 5263 5277 5287 5298 5308 5319
5219 5209 5201 5197 5191 5186 5182 5180 5180 5180 5178 5177 5176 5178 5182 5187 5192 5200 5211 5224 5239 5254 5268 5278 5288 5298 5308
5211 5205 5200 5196 5192 5187 5182 5177 5177 5176 5175 5174 5174 5176 5179 5182 5187 5194 5204 5216 5232 5247 5260 5269 5279 5288 5297
5210 5205 5200 5195 5190 5185 5181 5177 5175 5174 5173 5172 5173 5174 5176 5180 5184 5191 5202 5215 5229 5242 5253 5262 5271 5280 5290
5207 5201 5194 5190 5186 5182 5178 5176 5174 5173 5172 5172 5173 5173 5176 5179 5184 5191 5201 5213 5226 5237 5246 5255 5263 5272 5282
5200 5194 5190 5186 5183 5180 5178 5176 5174 5173 5173 5172 5172 5173 5176 5178 5184 5191 5199 5211 5221 5230 5239 5248 5257 5265 5275
5196 5193 5190 5187 5184 5182 5179 5177 5175 5172 5170 5170 5172 5172 5175 5178 5184 5191 5199 5209 5217 5226 5234 5242 5250 5258 5267
5198 5194 5191 5188 5186 5183 5179 5177 5176 5174 5172 5172 5173 5176 5179 5183 5188 5192 5199 5207 5215 5223 5230 5237 5245 5253 5262
5199 5195 5191 5189 5187 5185 5183 5182 5180 5179 5178 5177 5177 5179 5183 5187 5191 5196 5202 5209 5216 5222 5228 5234 5241 5250 5258